SWAS

Last updated on Thu Nov 21 2024 00:03:26 GMT+0000 (Coordinated Universal Time)

1 25560U 98071A 24325.37398725 .00008372 00000+0 62614-3 0 9994 2 25560 69.8980 260.7263 0004342 27.6855 332.4536 15.03076116410834
UTC large
Height (km)
Speed (km/s)
/
Latitude / Longitude
Inclination (degrees)
Orbital Period (minutes)
Azimuth
Elevation
Range (km)
Doppler Factor

Next 0 passes for location: London (51.5072 / 0.1276)

Sorry there are no passes over London.